Time,TemperatureF,DewpointF,PressureIn,WindDirection,WindDirectionDegrees,WindSpeedMPH,WindSpeedGustMPH,Humidity,HourlyPrecipIn,Conditions,Clouds,dailyrainin,SoftwareType,DateUTC
2013-02-08 00:01:00,54.3,48.9,30.02,North,0,5.0,11.0,82,0.00,,,0.00,meteohub,2013-02-08 08:01:00,
2013-02-08 00:06:00,54.1,48.4,30.01,NW,315,7.0,11.0,81,0.00,,,0.00,meteohub,2013-02-08 08:06:00,
2013-02-08 00:11:00,54.0,48.2,30.02,North,0,4.0,11.0,81,0.00,,,0.00,meteohub,2013-02-08 08:11:00,
2013-02-08 00:16:00,53.8,48.0,30.01,NW,315,7.0,11.0,81,0.00,,,0.00,meteohub,2013-02-08 08:16:00,
2013-02-08 00:21:00,53.6,47.7,30.01,NW,315,4.0,10.0,80,0.00,,,0.00,meteohub,2013-02-08 08:21:00,
2013-02-08 00:26:00,53.4,47.1,30.01,NW,315,5.0,10.0,79,0.00,,,0.00,meteohub,2013-02-08 08:26:00,
2013-02-08 00:31:00,53.2,46.6,30.01,North,0,8.0,10.0,78,0.00,,,0.00,meteohub,2013-02-08 08:31:00,
2013-02-08 00:37:00,53.2,46.9,30.01,NW,315,4.0,9.0,79,0.00,,,0.00,meteohub,2013-02-08 08:37:00,
2013-02-08 00:42:00,53.1,46.8,30.01,North,0,8.0,9.0,79,0.00,,,0.00,meteohub,2013-02-08 08:42:00,
2013-02-08 00:47:00,53.2,46.9,30.01,NW,315,8.0,9.0,79,0.00,,,0.00,meteohub,2013-02-08 08:47:00,
2013-02-08 00:52:00,53.2,46.6,30.01,NW,315,8.0,9.0,78,0.00,,,0.00,meteohub,2013-02-08 08:52:00,
2013-02-08 00:57:00,53.2,46.6,30.01,North,0,7.0,10.0,78,0.00,,,0.00,meteohub,2013-02-08 08:57:00,
2013-02-08 01:02:00,53.2,46.2,30.01,NW,315,8.0,11.0,77,0.00,,,0.00,meteohub,2013-02-08 09:02:00,
2013-02-08 01:07:00,53.4,45.7,30.01,WNW,293,8.0,11.0,75,0.00,,,0.00,meteohub,2013-02-08 09:07:00,
2013-02-08 01:12:00,53.2,44.8,30.02,NW,315,7.0,14.0,73,0.00,,,0.00,meteohub,2013-02-08 09:12:00,
2013-02-08 01:17:00,53.2,44.4,30.01,NW,315,9.0,14.0,72,0.00,,,0.00,meteohub,2013-02-08 09:17:00,
2013-02-08 01:22:00,53.1,44.2,30.02,West,270,11.0,14.0,72,0.00,,,0.00,meteohub,2013-02-08 09:22:00,
2013-02-08 01:27:00,53.1,44.6,30.02,NNW,338,7.0,13.0,73,0.00,,,0.00,meteohub,2013-02-08 09:27:00,
2013-02-08 01:32:00,52.9,44.4,30.02,NW,315,4.0,12.0,73,0.00,,,0.00,meteohub,2013-02-08 09:32:00,
2013-02-08 01:37:00,52.9,44.4,30.02,West,270,7.0,13.0,73,0.00,,,0.00,meteohub,2013-02-08 09:37:00,
2013-02-08 01:42:00,52.9,44.4,30.01,NW,315,11.0,13.0,73,0.00,,,0.00,meteohub,2013-02-08 09:42:00,
2013-02-08 01:47:00,52.7,44.2,30.02,WNW,293,11.0,11.0,73,0.00,,,0.00,meteohub,2013-02-08 09:47:00,
2013-02-08 01:52:00,52.7,44.2,30.01,NNE,23,12.0,12.0,73,0.00,,,0.00,meteohub,2013-02-08 09:52:00,
2013-02-08 01:57:00,52.5,44.1,30.01,NW,315,9.0,15.0,73,0.00,,,0.00,meteohub,2013-02-08 09:57:00,
2013-02-08 02:02:00,52.5,43.7,30.01,NW,315,11.0,15.0,72,0.00,,,0.00,meteohub,2013-02-08 10:02:00,
2013-02-08 02:07:00,52.3,43.5,30.01,WNW,293,15.0,15.0,72,0.00,,,0.00,meteohub,2013-02-08 10:07:00,
2013-02-08 02:12:00,52.5,43.3,30.01,North,0,12.0,15.0,71,0.00,,,0.00,meteohub,2013-02-08 10:12:00,
2013-02-08 02:17:00,52.3,42.8,30.01,North,0,8.0,15.0,70,0.00,,,0.00,meteohub,2013-02-08 10:17:00,
2013-02-08 02:22:00,52.2,43.0,30.01,North,0,4.0,15.0,71,0.00,,,0.00,meteohub,2013-02-08 10:22:00,
2013-02-08 02:27:00,52.0,42.8,30.01,NW,315,4.0,15.0,71,0.00,,,0.00,meteohub,2013-02-08 10:27:00,
2013-02-08 02:32:00,51.8,42.6,30.00,NW,315,7.0,14.0,71,0.00,,,0.00,meteohub,2013-02-08 10:32:00,
2013-02-08 02:37:00,52.0,42.4,30.00,NW,315,8.0,12.0,70,0.00,,,0.00,meteohub,2013-02-08 10:37:00,
2013-02-08 02:42:00,52.0,42.4,30.01,NW,315,7.0,12.0,70,0.00,,,0.00,meteohub,2013-02-08 10:42:00,
2013-02-08 02:47:00,51.8,41.9,30.00,NW,315,7.0,12.0,69,0.00,,,0.00,meteohub,2013-02-08 10:47:00,
2013-02-08 02:52:00,51.8,41.9,30.00,NW,315,6.0,12.0,69,0.00,,,0.00,meteohub,2013-02-08 10:52:00,
2013-02-08 02:56:00,51.8,41.5,30.00,WNW,293,8.0,11.0,68,0.00,,,0.00,meteohub,2013-02-08 10:56:00,
2013-02-08 03:01:00,51.8,40.8,30.00,NW,315,11.0,13.0,66,0.00,,,0.00,meteohub,2013-02-08 11:01:00,
2013-02-08 03:06:00,51.8,40.5,30.00,NW,315,7.0,15.0,65,0.00,,,0.00,meteohub,2013-02-08 11:06:00,
2013-02-08 03:11:00,51.8,40.5,30.00,NW,315,11.0,15.0,65,0.00,,,0.00,meteohub,2013-02-08 11:11:00,
2013-02-08 03:16:00,51.6,40.3,30.00,NW,315,10.0,16.0,65,0.00,,,0.00,meteohub,2013-02-08 11:16:00,
2013-02-08 03:22:00,51.6,40.3,30.00,WNW,293,9.0,16.0,65,0.00,,,0.00,meteohub,2013-02-08 11:22:00,
2013-02-08 03:27:00,51.4,40.5,30.00,WNW,293,8.0,11.0,66,0.00,,,0.00,meteohub,2013-02-08 11:27:00,
2013-02-08 03:32:00,51.4,40.5,30.00,WNW,293,8.0,11.0,66,0.00,,,0.00,meteohub,2013-02-08 11:32:00,
2013-02-08 03:37:00,51.3,40.3,30.00,NW,315,11.0,11.0,66,0.00,,,0.00,meteohub,2013-02-08 11:37:00,
2013-02-08 03:42:00,51.3,40.3,30.00,NW,315,8.0,11.0,66,0.00,,,0.00,meteohub,2013-02-08 11:42:00,
2013-02-08 03:47:00,51.3,40.6,30.00,SW,225,10.0,11.0,67,0.00,,,0.00,meteohub,2013-02-08 11:47:00,
2013-02-08 03:52:00,51.4,40.8,29.99,North,0,7.0,11.0,67,0.00,,,0.00,meteohub,2013-02-08 11:52:00,
2013-02-08 03:57:00,51.3,40.6,29.99,NW,315,7.0,11.0,67,0.00,,,0.00,meteohub,2013-02-08 11:57:00,
2013-02-08 04:02:00,51.1,40.5,30.00,NW,315,4.0,10.0,67,0.00,,,0.00,meteohub,2013-02-08 12:02:00,
2013-02-08 04:07:00,51.1,40.5,30.00,North,0,5.0,10.0,67,0.00,,,0.00,meteohub,2013-02-08 12:07:00,
2013-02-08 04:12:00,51.1,40.8,30.00,North,0,4.0,8.0,68,0.00,,,0.00,meteohub,2013-02-08 12:12:00,
2013-02-08 04:17:00,51.3,41.0,30.00,North,0,5.0,12.0,68,0.00,,,0.00,meteohub,2013-02-08 12:17:00,
2013-02-08 04:22:00,51.4,40.8,29.99,NW,315,7.0,12.0,67,0.00,,,0.00,meteohub,2013-02-08 12:22:00,
2013-02-08 04:26:00,51.4,40.8,29.99,NW,315,4.0,12.0,67,0.00,,,0.00,meteohub,2013-02-08 12:26:00,
2013-02-08 04:32:00,51.6,41.4,30.00,WNW,293,8.0,8.0,68,0.00,,,0.00,meteohub,2013-02-08 12:32:00,
2013-02-08 04:37:00,51.8,41.5,29.99,North,0,3.0,11.0,68,0.00,,,0.00,meteohub,2013-02-08 12:37:00,
2013-02-08 04:42:00,51.6,41.4,29.99,NW,315,7.0,11.0,68,0.00,,,0.00,meteohub,2013-02-08 12:42:00,
2013-02-08 04:47:00,51.6,41.4,29.99,WNW,293,5.0,11.0,68,0.00,,,0.00,meteohub,2013-02-08 12:47:00,
2013-02-08 04:52:00,51.6,41.4,30.00,NW,315,6.0,10.0,68,0.00,,,0.00,meteohub,2013-02-08 12:52:00,
2013-02-08 04:57:00,51.8,41.9,29.99,North,0,7.0,10.0,69,0.00,,,0.00,meteohub,2013-02-08 12:57:00,
2013-02-08 05:02:00,51.8,41.9,29.99,NW,315,4.0,9.0,69,0.00,,,0.00,meteohub,2013-02-08 13:02:00,
2013-02-08 05:07:00,51.8,42.3,29.99,North,0,4.0,8.0,70,0.00,,,0.00,meteohub,2013-02-08 13:07:00,
2013-02-08 05:12:00,51.8,41.9,29.99,NW,315,9.0,13.0,69,0.00,,,0.00,meteohub,2013-02-08 13:12:00,
2013-02-08 05:17:00,51.8,41.9,29.99,NW,315,8.0,13.0,69,0.00,,,0.00,meteohub,2013-02-08 13:17:00,
2013-02-08 05:22:00,52.0,42.1,29.99,West,270,5.0,13.0,69,0.00,,,0.00,meteohub,2013-02-08 13:22:00,
2013-02-08 05:27:00,52.0,42.4,29.99,North,0,4.0,12.0,70,0.00,,,0.00,meteohub,2013-02-08 13:27:00,
2013-02-08 05:32:00,52.2,41.9,29.99,NW,315,6.0,11.0,68,0.00,,,0.00,meteohub,2013-02-08 13:32:00,
2013-02-08 05:37:00,52.2,41.5,29.99,NW,315,11.0,11.0,67,0.00,,,0.00,meteohub,2013-02-08 13:37:00,
2013-02-08 05:42:00,52.2,41.5,29.99,NW,315,9.0,15.0,67,0.00,,,0.00,meteohub,2013-02-08 13:42:00,
2013-02-08 05:47:00,52.2,41.2,29.99,North,0,8.0,15.0,66,0.00,,,0.00,meteohub,2013-02-08 13:47:00,
2013-02-08 05:52:00,52.2,41.2,29.99,North,0,7.0,15.0,66,0.00,,,0.00,meteohub,2013-02-08 13:52:00,
2013-02-08 05:57:00,52.2,41.5,30.00,NW,315,8.0,13.0,67,0.00,,,0.00,meteohub,2013-02-08 13:57:00,
2013-02-08 06:02:00,52.0,41.4,30.00,North,0,8.0,13.0,67,0.00,,,0.00,meteohub,2013-02-08 14:02:00,
2013-02-08 06:07:00,51.8,41.5,29.99,NW,315,11.0,13.0,68,0.00,,,0.00,meteohub,2013-02-08 14:07:00,
2013-02-08 06:12:00,51.8,41.5,30.00,North,0,4.0,11.0,68,0.00,,,0.00,meteohub,2013-02-08 14:12:00,
2013-02-08 06:17:00,51.6,41.4,30.00,North,0,8.0,11.0,68,0.00,,,0.00,meteohub,2013-02-08 14:17:00,
2013-02-08 06:22:00,51.6,41.7,30.00,North,0,4.0,11.0,69,0.00,,,0.00,meteohub,2013-02-08 14:22:00,
2013-02-08 06:27:00,51.6,41.7,30.00,NW,315,4.0,8.0,69,0.00,,,0.00,meteohub,2013-02-08 14:27:00,
2013-02-08 06:32:00,51.4,41.5,30.00,NNW,338,8.0,8.0,69,0.00,,,0.00,meteohub,2013-02-08 14:32:00,
2013-02-08 06:37:00,51.6,41.7,30.00,North,0,4.0,9.0,69,0.00,,,0.00,meteohub,2013-02-08 14:37:00,
2013-02-08 06:42:00,51.6,41.7,30.00,NW,315,4.0,12.0,69,0.00,,,0.00,meteohub,2013-02-08 14:42:00,
2013-02-08 06:47:00,51.6,42.1,30.00,North,0,4.0,12.0,70,0.00,,,0.00,meteohub,2013-02-08 14:47:00,
2013-02-08 06:52:00,51.6,42.4,30.01,North,0,7.0,7.0,71,0.00,,,0.00,meteohub,2013-02-08 14:52:00,
2013-02-08 06:57:00,51.6,42.4,30.01,NW,315,7.0,7.0,71,0.00,,,0.00,meteohub,2013-02-08 14:57:00,
2013-02-08 07:02:00,51.8,42.6,30.01,NW,315,6.0,12.0,71,0.00,,,0.00,meteohub,2013-02-08 15:02:00,
2013-02-08 07:07:00,51.8,42.3,30.01,North,0,4.0,12.0,70,0.00,,,0.00,meteohub,2013-02-08 15:07:00,
2013-02-08 07:12:00,51.8,42.3,30.01,NW,315,10.0,12.0,70,0.00,,,0.00,meteohub,2013-02-08 15:12:00,
2013-02-08 07:17:00,52.0,42.8,30.01,NW,315,4.0,11.0,71,0.00,,,0.00,meteohub,2013-02-08 15:17:00,
2013-02-08 07:22:00,52.0,42.4,30.01,NNW,338,4.0,11.0,70,0.00,,,0.00,meteohub,2013-02-08 15:22:00,
2013-02-08 07:27:00,52.0,42.8,30.02,NW,315,8.0,10.0,71,0.00,,,0.00,meteohub,2013-02-08 15:27:00,
2013-02-08 07:32:00,52.2,43.0,30.02,North,0,7.0,8.0,71,0.00,,,0.00,meteohub,2013-02-08 15:32:00,
2013-02-08 07:37:00,52.0,42.8,30.01,NNW,338,5.0,8.0,71,0.00,,,0.00,meteohub,2013-02-08 15:37:00,
2013-02-08 07:42:00,52.2,43.0,30.01,NE,45,4.0,8.0,71,0.00,,,0.00,meteohub,2013-02-08 15:42:00,
2013-02-08 07:47:00,52.2,43.0,30.01,NW,315,8.0,8.0,71,0.00,,,0.00,meteohub,2013-02-08 15:47:00,
2013-02-08 07:52:00,52.3,42.8,30.02,NW,315,6.0,8.0,70,0.00,,,0.00,meteohub,2013-02-08 15:52:00,
2013-02-08 07:57:00,53.2,43.3,30.01,North,0,5.0,11.0,69,0.00,,,0.00,meteohub,2013-02-08 15:57:00,
2013-02-08 08:02:00,53.4,43.5,30.01,North,0,2.0,11.0,69,0.00,,,0.00,meteohub,2013-02-08 16:02:00,
2013-02-08 08:07:00,53.4,43.2,30.02,NNE,23,6.0,8.0,68,0.00,,,0.00,meteohub,2013-02-08 16:07:00,
2013-02-08 08:12:00,53.2,43.0,30.01,NW,315,9.0,9.0,68,0.00,,,0.00,meteohub,2013-02-08 16:12:00,
2013-02-08 08:17:00,53.2,43.0,30.01,NE,45,8.0,9.0,68,0.00,,,0.00,meteohub,2013-02-08 16:17:00,
2013-02-08 08:22:00,53.2,43.0,30.02,West,270,4.0,9.0,68,0.00,,,0.00,meteohub,2013-02-08 16:22:00,
2013-02-08 08:27:00,53.1,43.2,30.02,NW,315,11.0,11.0,69,0.00,,,0.00,meteohub,2013-02-08 16:27:00,
2013-02-08 08:32:00,52.9,43.0,30.01,NW,315,4.0,11.0,69,0.00,,,0.00,meteohub,2013-02-08 16:32:00,
2013-02-08 08:37:00,53.1,42.8,30.02,NNE,23,4.0,11.0,68,0.00,,,0.00,meteohub,2013-02-08 16:37:00,
2013-02-08 08:42:00,53.2,43.0,30.02,NW,315,4.0,11.0,68,0.00,,,0.00,meteohub,2013-02-08 16:42:00,
2013-02-08 08:47:00,53.6,43.3,30.01,NW,315,4.0,10.0,68,0.00,,,0.00,meteohub,2013-02-08 16:47:00,
2013-02-08 08:52:00,54.0,43.7,30.02,NW,315,3.0,8.0,68,0.00,,,0.00,meteohub,2013-02-08 16:52:00,
2013-02-08 08:57:00,54.5,43.3,30.01,North,0,4.0,7.0,66,0.00,,,0.00,meteohub,2013-02-08 16:57:00,
2013-02-08 09:02:00,55.2,42.8,30.01,NW,315,6.0,6.0,63,0.00,,,0.00,meteohub,2013-02-08 17:02:00,
2013-02-08 09:07:00,55.9,42.6,30.01,NNE,23,11.0,11.0,61,0.00,,,0.00,meteohub,2013-02-08 17:07:00,
2013-02-08 09:12:00,55.9,42.3,30.01,NW,315,8.0,11.0,60,0.00,,,0.00,meteohub,2013-02-08 17:12:00,
2013-02-08 09:17:00,56.5,43.2,30.01,West,270,11.0,12.0,61,0.00,,,0.00,meteohub,2013-02-08 17:17:00,
2013-02-08 09:22:00,56.1,42.8,30.01,NNW,338,11.0,14.0,61,0.00,,,0.00,meteohub,2013-02-08 17:22:00,
2013-02-08 09:27:00,56.1,42.4,30.01,NW,315,14.0,14.0,60,0.00,,,0.00,meteohub,2013-02-08 17:27:00,
2013-02-08 09:32:00,56.5,42.3,30.00,NW,315,10.0,15.0,59,0.00,,,0.00,meteohub,2013-02-08 17:32:00,
2013-02-08 09:37:00,57.2,42.6,30.00,NW,315,11.0,15.0,58,0.00,,,0.00,meteohub,2013-02-08 17:37:00,
2013-02-08 09:42:00,56.7,43.0,30.00,NW,315,9.0,15.0,60,0.00,,,0.00,meteohub,2013-02-08 17:42:00,
2013-02-08 09:47:00,56.8,42.6,30.01,WNW,293,12.0,16.0,59,0.00,,,0.00,meteohub,2013-02-08 17:47:00,
2013-02-08 09:52:00,57.2,43.0,30.01,West,270,8.0,16.0,59,0.00,,,0.00,meteohub,2013-02-08 17:52:00,
2013-02-08 09:57:00,57.2,41.7,30.00,NW,315,21.0,21.0,56,0.00,,,0.00,meteohub,2013-02-08 17:57:00,
2013-02-08 10:02:00,57.0,42.4,30.00,WNW,293,11.0,21.0,58,0.00,,,0.00,meteohub,2013-02-08 18:02:00,
2013-02-08 10:07:00,56.3,41.7,30.00,NW,315,15.0,21.0,58,0.00,,,0.00,meteohub,2013-02-08 18:07:00,
2013-02-08 10:12:00,55.8,42.1,30.01,WNW,293,10.0,21.0,60,0.00,,,0.00,meteohub,2013-02-08 18:12:00,
2013-02-08 10:17:00,55.8,42.1,30.02,WNW,293,10.0,16.0,60,0.00,,,0.00,meteohub,2013-02-08 18:17:00,
2013-02-08 10:22:00,55.8,42.1,30.03,WNW,293,10.0,16.0,60,0.00,,,0.00,meteohub,2013-02-08 18:22:00,
2013-02-08 13:46:00,52.0,45.0,29.94,West,270,9.0,-999.0,77,-99.99,,,0.00,meteohub,2013-02-08 21:46:00,
2013-02-08 13:51:00,52.9,45.1,29.94,NW,315,14.0,14.0,75,0.00,,,0.00,meteohub,2013-02-08 21:51:00,
2013-02-08 13:56:00,53.4,45.0,29.93,North,0,8.0,14.0,73,0.00,,,0.00,meteohub,2013-02-08 21:56:00,
2013-02-08 14:01:00,54.0,44.1,29.93,NW,315,16.0,16.0,69,0.00,,,0.00,meteohub,2013-02-08 22:01:00,
2013-02-08 14:06:00,54.9,45.7,29.93,North,0,5.0,16.0,71,0.00,,,0.00,meteohub,2013-02-08 22:06:00,
2013-02-08 14:11:00,55.6,46.4,29.93,SW,225,17.0,17.0,71,0.00,,,0.00,meteohub,2013-02-08 22:11:00,
2013-02-08 14:16:00,55.6,44.8,29.94,NW,315,8.0,17.0,67,0.00,,,0.00,meteohub,2013-02-08 22:16:00,
2013-02-08 14:21:00,54.3,43.5,29.93,North,0,10.0,17.0,67,0.00,,,0.00,meteohub,2013-02-08 22:21:00,
2013-02-08 14:26:00,53.4,43.9,29.93,NW,315,11.0,17.0,70,0.00,,,0.00,meteohub,2013-02-08 22:26:00,
2013-02-08 14:31:00,53.2,44.1,29.93,NW,315,8.0,17.0,71,0.00,,,0.00,meteohub,2013-02-08 22:31:00,
2013-02-08 14:36:00,52.7,43.2,29.93,NE,45,11.0,17.0,70,0.00,,,0.00,meteohub,2013-02-08 22:36:00,
2013-02-08 14:41:00,52.3,44.2,29.93,NW,315,9.0,16.0,74,0.00,,,0.00,meteohub,2013-02-08 22:41:00,
2013-02-08 14:46:00,53.8,44.2,29.93,WNW,293,11.0,16.0,70,0.00,,,0.00,meteohub,2013-02-08 22:46:00,
2013-02-08 14:51:00,54.1,41.4,29.93,NW,315,17.0,17.0,62,0.00,,,0.00,meteohub,2013-02-08 22:51:00,
2013-02-08 14:56:00,53.8,40.6,29.92,NNE,23,12.0,17.0,61,0.00,,,0.00,meteohub,2013-02-08 22:56:00,
2013-02-08 15:01:00,53.1,40.8,29.93,NW,315,11.0,19.0,63,0.00,,,0.00,meteohub,2013-02-08 23:01:00,
2013-02-08 15:06:00,52.3,41.4,29.93,NW,315,11.0,19.0,66,0.00,,,0.00,meteohub,2013-02-08 23:06:00,
2013-02-08 15:11:00,52.0,41.4,29.93,NW,315,16.0,19.0,67,0.00,,,0.00,meteohub,2013-02-08 23:11:00,
2013-02-08 15:16:00,52.0,42.1,29.92,North,0,10.0,18.0,69,0.00,,,0.00,meteohub,2013-02-08 23:16:00,
2013-02-08 15:21:00,52.2,41.5,29.92,WNW,293,15.0,18.0,67,0.00,,,0.00,meteohub,2013-02-08 23:21:00,
2013-02-08 15:26:00,52.5,41.5,29.92,NW,315,14.0,18.0,66,0.00,,,0.00,meteohub,2013-02-08 23:26:00,
2013-02-08 15:31:00,52.7,40.8,29.92,West,270,12.0,17.0,64,0.00,,,0.00,meteohub,2013-02-08 23:31:00,
2013-02-08 15:36:00,52.9,40.6,29.92,NW,315,15.0,17.0,63,0.00,,,0.00,meteohub,2013-02-08 23:36:00,
2013-02-08 15:41:00,53.2,41.4,29.92,NW,315,9.0,15.0,64,0.00,,,0.00,meteohub,2013-02-08 23:41:00,
2013-02-08 15:46:00,54.1,42.6,29.92,NW,315,13.0,17.0,65,0.00,,,0.00,meteohub,2013-02-08 23:46:00,
2013-02-08 15:51:00,54.7,41.9,29.92,West,270,11.0,17.0,62,0.00,,,0.00,meteohub,2013-02-08 23:51:00,
2013-02-08 15:57:00,54.5,42.1,29.92,NW,315,11.0,17.0,63,0.00,,,0.00,meteohub,2013-02-08 23:57:00,
2013-02-08 16:02:00,54.1,41.9,29.92,NW,315,14.0,17.0,63,0.00,,,0.00,meteohub,2013-02-09 00:02:00,
2013-02-08 16:07:00,53.2,41.7,29.92,WNW,293,13.0,16.0,65,0.00,,,0.00,meteohub,2013-02-09 00:07:00,
2013-02-08 16:12:00,52.3,42.1,29.91,WNW,293,14.0,17.0,68,0.00,,,0.00,meteohub,2013-02-09 00:12:00,
2013-02-08 16:17:00,52.0,41.7,29.91,NW,315,12.0,17.0,68,0.00,,,0.00,meteohub,2013-02-09 00:17:00,
2013-02-08 16:22:00,52.5,41.9,29.92,NW,315,7.0,15.0,67,0.00,,,0.00,meteohub,2013-02-09 00:22:00,
2013-02-08 16:27:00,52.9,41.9,29.91,NW,315,15.0,15.0,66,0.00,,,0.00,meteohub,2013-02-09 00:27:00,
2013-02-08 16:32:00,52.7,40.8,29.91,NW,315,11.0,15.0,64,0.00,,,0.00,meteohub,2013-02-09 00:32:00,
2013-02-08 16:37:00,52.2,40.8,29.91,NW,315,7.0,15.0,65,0.00,,,0.00,meteohub,2013-02-09 00:37:00,
2013-02-08 16:42:00,51.8,40.5,29.91,West,270,7.0,15.0,65,0.00,,,0.00,meteohub,2013-02-09 00:42:00,
2013-02-08 16:47:00,52.3,41.0,29.92,NW,315,14.0,15.0,65,0.00,,,0.00,meteohub,2013-02-09 00:47:00,
2013-02-08 16:52:00,52.2,40.8,29.91,NW,315,8.0,14.0,65,0.00,,,0.00,meteohub,2013-02-09 00:52:00,
2013-02-08 16:57:00,51.8,40.5,29.92,WNW,293,15.0,15.0,65,0.00,,,0.00,meteohub,2013-02-09 00:57:00,
2013-02-08 17:02:00,51.4,39.7,29.92,NW,315,8.0,15.0,64,0.00,,,0.00,meteohub,2013-02-09 01:02:00,
2013-02-08 17:07:00,51.1,39.7,29.92,NW,315,12.0,15.0,65,0.00,,,0.00,meteohub,2013-02-09 01:07:00,
2013-02-08 17:12:00,50.7,40.1,29.92,NW,315,6.0,15.0,67,0.00,,,0.00,meteohub,2013-02-09 01:12:00,
2013-02-08 17:17:00,50.5,40.5,29.92,West,270,8.0,13.0,68,0.00,,,0.00,meteohub,2013-02-09 01:17:00,
2013-02-08 17:22:00,50.5,41.2,29.92,WNW,293,8.0,15.0,70,0.00,,,0.00,meteohub,2013-02-09 01:22:00,
2013-02-08 17:27:00,50.4,41.4,29.92,NW,315,4.0,15.0,71,0.00,,,0.00,meteohub,2013-02-09 01:27:00,
2013-02-08 17:32:00,50.2,41.9,29.92,WNW,293,6.0,10.0,73,0.00,,,0.00,meteohub,2013-02-09 01:32:00,
2013-02-08 17:37:00,49.6,41.4,29.92,NW,315,8.0,11.0,73,0.00,,,0.00,meteohub,2013-02-09 01:37:00,
2013-02-08 17:42:00,49.6,40.3,29.92,NW,315,7.0,11.0,70,0.00,,,0.00,meteohub,2013-02-09 01:42:00,
2013-02-08 17:47:00,49.6,41.0,29.92,NW,315,5.0,11.0,72,0.00,,,0.00,meteohub,2013-02-09 01:47:00,
2013-02-08 17:52:00,49.3,41.4,29.92,North,0,5.0,8.0,74,0.00,,,0.00,meteohub,2013-02-09 01:52:00,
2013-02-08 17:57:00,48.9,42.1,29.92,North,0,4.0,8.0,77,0.00,,,0.00,meteohub,2013-02-09 01:57:00,
2013-02-08 18:02:00,48.2,43.3,29.92,NW,315,5.0,8.0,83,0.00,,,0.00,meteohub,2013-02-09 02:02:00,
2013-02-08 18:07:00,47.1,42.8,29.92,NW,315,3.0,9.0,85,0.02,,,0.02,meteohub,2013-02-09 02:07:00,
2013-02-08 18:12:00,46.9,43.0,29.92,NW,315,2.0,9.0,86,0.02,,,0.02,meteohub,2013-02-09 02:12:00,
2013-02-08 18:17:00,46.8,43.2,29.93,NW,315,2.0,9.0,87,0.02,,,0.02,meteohub,2013-02-09 02:17:00,
2013-02-08 18:22:00,46.9,43.5,29.92,NW,315,2.0,4.0,88,0.02,,,0.02,meteohub,2013-02-09 02:22:00,
2013-02-08 18:27:00,46.9,43.5,29.92,NW,315,2.0,3.0,88,0.02,,,0.02,meteohub,2013-02-09 02:27:00,
2013-02-08 18:32:00,47.1,43.7,29.92,NW,315,6.0,6.0,88,0.02,,,0.02,meteohub,2013-02-09 02:32:00,
2013-02-08 18:37:00,47.5,43.5,29.92,NW,315,5.0,6.0,86,0.02,,,0.02,meteohub,2013-02-09 02:37:00,
2013-02-08 18:42:00,47.5,43.5,29.92,NW,315,4.0,6.0,86,0.02,,,0.02,meteohub,2013-02-09 02:42:00,
2013-02-08 18:47:00,47.3,43.3,29.92,NW,315,4.0,6.0,86,0.02,,,0.02,meteohub,2013-02-09 02:47:00,
2013-02-08 18:52:00,47.5,43.5,29.92,NW,315,5.0,6.0,86,0.02,,,0.02,meteohub,2013-02-09 02:52:00,
2013-02-08 18:57:00,47.5,43.5,29.93,NW,315,4.0,6.0,86,0.02,,,0.02,meteohub,2013-02-09 02:57:00,
2013-02-08 19:01:00,47.5,43.9,29.93,NW,315,2.0,6.0,87,0.01,,,0.02,meteohub,2013-02-09 03:01:00,
2013-02-08 19:06:00,47.3,43.7,29.93,NW,315,2.0,5.0,87,0.00,,,0.02,meteohub,2013-02-09 03:06:00,
2013-02-08 19:11:00,47.3,43.9,29.92,NW,315,2.0,4.0,88,0.00,,,0.02,meteohub,2013-02-09 03:11:00,
2013-02-08 19:16:00,47.3,44.2,29.93,NW,315,3.0,4.0,89,0.00,,,0.02,meteohub,2013-02-09 03:16:00,
2013-02-08 19:22:00,47.3,44.2,29.92,NW,315,4.0,4.0,89,0.00,,,0.02,meteohub,2013-02-09 03:22:00,
2013-02-08 19:27:00,47.3,44.2,29.92,NW,315,2.0,5.0,89,0.00,,,0.02,meteohub,2013-02-09 03:27:00,
2013-02-08 19:32:00,47.1,43.7,29.91,NW,315,1.0,5.0,88,0.00,,,0.02,meteohub,2013-02-09 03:32:00,
2013-02-08 19:37:00,47.1,44.4,29.91,West,270,2.0,4.0,90,0.00,,,0.02,meteohub,2013-02-09 03:37:00,
2013-02-08 19:42:00,47.3,44.6,29.91,West,270,2.0,3.0,90,0.00,,,0.02,meteohub,2013-02-09 03:42:00,
2013-02-08 19:47:00,47.3,44.6,29.91,West,270,3.0,3.0,90,0.00,,,0.02,meteohub,2013-02-09 03:47:00,
2013-02-08 19:52:00,47.5,44.8,29.92,West,270,4.0,4.0,90,0.00,,,0.02,meteohub,2013-02-09 03:52:00,
2013-02-08 19:57:00,47.5,44.8,29.92,NW,315,5.0,5.0,90,0.00,,,0.02,meteohub,2013-02-09 03:57:00,
2013-02-08 20:02:00,47.7,44.6,29.92,NW,315,3.0,5.0,89,0.00,,,0.02,meteohub,2013-02-09 04:02:00,
2013-02-08 20:07:00,47.5,44.4,29.91,NW,315,2.0,5.0,89,0.00,,,0.02,meteohub,2013-02-09 04:07:00,
2013-02-08 20:12:00,47.5,44.1,29.92,NW,315,2.0,5.0,88,0.00,,,0.02,meteohub,2013-02-09 04:12:00,
2013-02-08 20:17:00,47.5,44.1,29.92,NW,315,2.0,4.0,88,0.00,,,0.02,meteohub,2013-02-09 04:17:00,
2013-02-08 20:22:00,47.5,44.1,29.92,NW,315,2.0,4.0,88,0.00,,,0.02,meteohub,2013-02-09 04:22:00,
2013-02-08 20:27:00,47.5,44.1,29.92,NW,315,0.0,3.0,88,0.00,,,0.02,meteohub,2013-02-09 04:27:00,
2013-02-08 20:32:00,47.3,43.9,29.92,NW,315,0.0,3.0,88,0.00,,,0.02,meteohub,2013-02-09 04:32:00,
2013-02-08 20:37:00,47.1,44.1,29.93,NW,315,2.0,3.0,89,0.00,,,0.02,meteohub,2013-02-09 04:37:00,
2013-02-08 20:42:00,46.9,43.9,29.92,NW,315,1.0,2.0,89,0.00,,,0.02,meteohub,2013-02-09 04:42:00,
2013-02-08 20:47:00,46.8,44.1,29.93,NW,315,1.0,2.0,90,0.00,,,0.02,meteohub,2013-02-09 04:47:00,
2013-02-08 20:52:00,46.6,43.9,29.93,NW,315,0.0,2.0,90,0.00,,,0.02,meteohub,2013-02-09 04:52:00,
2013-02-08 20:57:00,46.4,43.7,29.93,NW,315,0.0,2.0,90,0.00,,,0.02,meteohub,2013-02-09 04:57:00,
2013-02-08 21:00:00,46.4,43.7,29.93,NW,315,0.0,2.0,90,0.00,,,0.02,meteohub,2013-02-09 05:00:00,
2013-02-08 21:05:00,46.6,44.1,29.93,NW,315,0.0,1.0,91,0.00,,,0.02,meteohub,2013-02-09 05:05:00,
2013-02-08 21:10:00,46.6,44.1,29.93,NW,315,0.0,1.0,91,0.00,,,0.02,meteohub,2013-02-09 05:10:00,
2013-02-08 21:15:00,46.4,43.9,29.93,NW,315,0.0,0.0,91,0.00,,,0.02,meteohub,2013-02-09 05:15:00,
2013-02-08 21:20:00,46.2,43.7,29.93,NW,315,0.0,0.0,91,0.00,,,0.02,meteohub,2013-02-09 05:20:00,
2013-02-08 21:25:00,46.2,44.1,29.93,NW,315,0.0,0.0,92,0.00,,,0.02,meteohub,2013-02-09 05:25:00,
2013-02-08 21:30:00,45.9,43.7,29.93,NW,315,0.0,2.0,92,0.00,,,0.02,meteohub,2013-02-09 05:30:00,
2013-02-08 21:35:00,45.5,43.3,29.94,NW,315,1.0,2.0,92,0.00,,,0.02,meteohub,2013-02-09 05:35:00,
2013-02-08 21:40:00,45.5,43.9,29.93,NW,315,2.0,2.0,94,0.00,,,0.02,meteohub,2013-02-09 05:40:00,
2013-02-08 21:45:00,45.1,43.5,29.94,NW,315,0.0,2.0,94,0.00,,,0.02,meteohub,2013-02-09 05:45:00,
2013-02-08 21:50:00,44.8,43.2,29.93,NW,315,0.0,2.0,94,0.00,,,0.02,meteohub,2013-02-09 05:50:00,
2013-02-08 21:55:00,44.8,43.7,29.94,NW,315,2.0,2.0,96,0.00,,,0.02,meteohub,2013-02-09 05:55:00,
2013-02-08 22:00:00,44.8,44.1,29.94,NW,315,2.0,2.0,97,0.00,,,0.02,meteohub,2013-02-09 06:00:00,
2013-02-08 22:05:00,44.8,44.1,29.94,NW,315,2.0,2.0,97,0.00,,,0.02,meteohub,2013-02-09 06:05:00,
2013-02-08 22:10:00,44.6,43.9,29.94,NW,315,0.0,2.0,97,0.00,,,0.02,meteohub,2013-02-09 06:10:00,
2013-02-08 22:15:00,44.4,43.7,29.94,NW,315,1.0,2.0,97,0.00,,,0.02,meteohub,2013-02-09 06:15:00,
2013-02-08 22:20:00,44.2,43.5,29.94,NW,315,0.0,2.0,97,0.00,,,0.02,meteohub,2013-02-09 06:20:00,
2013-02-08 22:25:00,44.1,43.3,29.94,NW,315,0.0,2.0,97,0.00,,,0.02,meteohub,2013-02-09 06:25:00,
2013-02-08 22:31:00,43.7,43.2,29.94,NW,315,0.0,2.0,98,0.00,,,0.02,meteohub,2013-02-09 06:31:00,
2013-02-08 22:36:00,43.2,42.6,29.94,NW,315,2.0,2.0,98,0.00,,,0.02,meteohub,2013-02-09 06:36:00,
2013-02-08 22:41:00,43.2,42.6,29.94,NW,315,0.0,2.0,98,0.00,,,0.02,meteohub,2013-02-09 06:41:00,
2013-02-08 22:46:00,43.2,43.0,29.95,NW,315,2.0,2.0,99,0.00,,,0.02,meteohub,2013-02-09 06:46:00,
2013-02-08 22:51:00,43.0,42.8,29.95,NW,315,0.0,2.0,99,0.00,,,0.02,meteohub,2013-02-09 06:51:00,
2013-02-08 22:56:00,43.0,42.8,29.95,SE,135,2.0,2.0,99,0.00,,,0.02,meteohub,2013-02-09 06:56:00,
2013-02-08 23:01:00,43.0,42.8,29.95,SE,135,0.0,2.0,99,0.00,,,0.02,meteohub,2013-02-09 07:01:00,
2013-02-08 23:06:00,42.4,42.3,29.95,SE,135,2.0,2.0,99,0.00,,,0.02,meteohub,2013-02-09 07:06:00,
2013-02-08 23:11:00,42.4,42.3,29.96,SE,135,2.0,2.0,99,0.00,,,0.02,meteohub,2013-02-09 07:11:00,
2013-02-08 23:16:00,42.3,42.1,29.95,SE,135,0.0,2.0,99,0.00,,,0.02,meteohub,2013-02-09 07:16:00,
2013-02-08 23:21:00,42.4,42.3,29.95,SE,135,1.0,2.0,99,0.00,,,0.02,meteohub,2013-02-09 07:21:00,
2013-02-08 23:26:00,42.3,42.1,29.96,SE,135,0.0,2.0,99,0.00,,,0.02,meteohub,2013-02-09 07:26:00,
2013-02-08 23:31:00,42.1,41.9,29.96,SE,135,1.0,2.0,99,0.00,,,0.02,meteohub,2013-02-09 07:31:00,
2013-02-08 23:36:00,41.7,41.5,29.96,SE,135,0.0,2.0,99,0.00,,,0.02,meteohub,2013-02-09 07:36:00,
2013-02-08 23:41:00,41.7,41.5,29.96,SE,135,2.0,2.0,99,0.00,,,0.02,meteohub,2013-02-09 07:41:00,
2013-02-08 23:46:00,42.1,41.9,29.96,SE,135,2.0,2.0,99,0.00,,,0.02,meteohub,2013-02-09 07:46:00,
2013-02-08 23:51:00,42.1,41.9,29.96,SE,135,2.0,2.0,99,0.00,,,0.02,meteohub,2013-02-09 07:51:00,
2013-02-08 23:56:00,42.1,41.9,29.96,SE,135,2.0,2.0,99,0.00,,,0.02,meteohub,2013-02-09 07:56:00,